Regional Weather Roundup
Issued by NWS

Home | Current Version | Previous Version | Text Only | Print | Product List | Glossary On
Versions: 1 2 3 4 5 6 7 8 9 10 11 12 13 14 15 16 17 18 19 20 21 22 23 24 25 26 27 28 29 30 31 32 33 34 35 36 37 38 39 40 41 42 43 44 45 46 47 48 49 50
000
ASUS42 KFFC 200803
RWRGA
WEATHER ROUNDUP FOR GEORGIA
NATIONAL WEATHER SERVICE PEACHTREE CITY GA
400 AM EDT MON OCT 20 2014

NOTE: "FAIR" INDICATES FEW OR NO CLOUDS BELOW 12,000 FEET WITH NO
SIGNIFICANT WEATHER AND/OR OBSTRUCTIONS TO VISIBILITY.

* = USE WITH CAUTION. THE STATIONS MARKED WITH AN ASTERISK MAY NOT
REPORT WEATHER SUCH AS PRECIPITATION, FOG, OR THUNDER AND ARE NOT
QUALITY CONTROLLED BY NWS.

THE REMARK "TC" DENOTES TEMPERATURE READING IN DEGREES CELSIUS.

GAZ001>058-200900-
NORTH GEORGIA

CITY           SKY/WX    TMP DP  RH WIND       PRES   REMARKS
ATLANTA        CLEAR     51  46  83 CALM      30.10S
ATHENS         CLEAR     48  45  89 CALM      30.10S
CHAMBLEE       CLEAR     46  44  93 CALM      30.10S
PEACHTREE CITY CLEAR     45  43  93 CALM      30.11S
ROME           CLEAR     44  43  96 CALM      30.10S
WEST ATLANTA   CLEAR     46  44  93 CALM      30.10S
GAINESVILLE    CLEAR     49  47  93 CALM      30.12S
CARTERSVILLE   PTCLDY    43  42  97 CALM      30.11S


CITY           SKY/WX    TMP DP  RH WIND       PRES   REMARKS
DALTON*        FOG       43  43 100 CALM      30.10S VSB 3/4
MARIETTA       CLEAR     48  47  97 CALM      30.10S
$$

GAZ059>098-102>109-200900-
CENTRAL GEORGIA

CITY           SKY/WX    TMP DP  RH WIND       PRES   REMARKS
AUGUSTA-BUSH   PTCLDY    42  41  96 CALM      30.12S
AUGUSTA-DANIEL PTCLDY    54  50  86 CALM      30.12S
COLUMBUS       CLEAR     52  49  89 CALM      30.09S
MACON          CLEAR     44  44 100 CALM      30.10S
ROBINS AFB     CLEAR     49  48  97 CALM      30.10F


CITY           SKY/WX    TMP DP  RH WIND       PRES   REMARKS
LAGRANGE*      CLEAR     47  46  95 CALM      30.09S
SYLVANIA*      CLEAR     50  50  98 CALM      30.12F
MILLEDGEVILLE* PTCLDY    50  50 100 CALM      30.10F FOG
$$

GAZ099>101-110>166-200900-
SOUTH GEORGIA

CITY           SKY/WX    TMP DP  RH WIND       PRES   REMARKS
SAVANNAH       PTCLDY    53  48  83 CALM      30.12F
VALDOSTA       CLEAR     52  47  83 CALM      30.07F
ALMA           CLEAR     47  46  97 CALM      30.09F FOG
ST SIMONS      CLEAR     56  56 100 N3        30.08F
FT STEWART     CLEAR     48  46  94 N1        30.09F
ALBANY         CLEAR     51  49  92 CALM      30.10S
HUNTER AFB     MOCLDY    53  52  95 CALM      30.09F
MOODY AFB      CLEAR     52  50  93 NE1       30.07F
BRUNSWICK      CLEAR     52  52 100 CALM      30.09F


CITY           SKY/WX    TMP DP  RH WIND       PRES   REMARKS
BAINBRIDGE*    CLEAR     55  54  94 CALM      30.07F
MOULTRIE*      CLEAR     54  52  94 CALM      30.09F
VIDALIA*       CLEAR     52  50  93 CALM      30.11F
WAYCROSS*      CLEAR     53  53  99 CALM      30.08F
DOUGLAS*       CLEAR     57  54  88 CALM      30.11S
$$


USA.gov is the U.S. government's official web portal to all federal, state and local government web resources and services.